This is the latest recevied weather packets stored in our database for station/object ZL1CTS-13. If no packets are shown the sender has not sent any weather packets the latest 10 day(s).
| Time | Temp. | Humidity | Pressure | Rain* | Wind** | Luminosity | Snow |
|---|---|---|---|---|---|---|---|
| 1777959603 | 16.67° C | 81% | 1021.3 hPa | 0 mm | - | - | - |
| 1777959004 | 17.22° C | 79% | 1021.3 hPa | 0 mm | - | - | - |
| 1777958404 | 17.78° C | 77% | 1021.3 hPa | 0 mm | - | - | - |
| 1777957804 | 18.33° C | 75% | 1021.3 hPa | 0 mm | - | - | - |
| 1777957204 | 18.33° C | 72% | 1021.4 hPa | 0 mm | - | - | - |
| 1777956604 | 18.89° C | 67% | 1021.1 hPa | 0 mm | - | - | - |
| 1777956004 | 19.44° C | 63% | 1021.4 hPa | 0 mm | - | - | - |
| 1777955404 | 20° C | 62% | 1021.4 hPa | 0 mm | - | - | - |
| 1777954804 | 20° C | 63% | 1021.1 hPa | 0 mm | - | - | - |
| 1777954204 | 19.44° C | 63% | 1021.4 hPa | 0 mm | - | - | - |
| 1777953604 | 19.44° C | 61% | 1021.5 hPa | 0 mm | - | - | - |
| 1777953004 | 20° C | 58% | 1021.5 hPa | 0 mm | - | - | - |
| 1777952403 | 20° C | 59% | 1021.5 hPa | 0 mm | - | - | - |
| 1777951803 | 20° C | 58% | 1021.6 hPa | 0 mm | - | - | - |
| 1777951207 | 20.56° C | 57% | 1021.5 hPa | 0 mm | - | - | - |
| 1777950603 | 20.56° C | 59% | 1021.5 hPa | 0 mm | - | - | - |
| 1777950005 | 20.56° C | 57% | 1021.4 hPa | 0 mm | - | - | - |
| 1777949405 | 21.11° C | 55% | 1021.4 hPa | 0 mm | - | - | - |
| 1777948804 | 21.11° C | 57% | 1021.5 hPa | 0 mm | - | - | - |
| 1777948203 | 21.11° C | 56% | 1021.5 hPa | 0 mm | - | - | - |
| 1777947604 | 21.67° C | 55% | 1021.4 hPa | 0 mm | - | - | - |
| 1777947004 | 23.89° C | 52% | 1021.3 hPa | 0 mm | - | - | - |
| 1777946404 | 23.89° C | 47% | 1021.5 hPa | 0 mm | - | - | - |
| 1777945804 | 23.89° C | 49% | 1021.6 hPa | 0 mm | - | - | - |
| 1777945204 | 24.44° C | 49% | 1021.6 hPa | 0 mm | - | - | - |
* Rain latest hour (hover to see other rain measurements)
** Current wind speed in m/s (hover to see current wind gust speed)